This is the latest recevied weather packets stored in our database for station/object G4WLC-1. If no packets are shown the sender has not sent any weather packets the latest 10 day(s).
| Time | Temp. | Humidity | Pressure | Rain* | Wind** | Luminosity | Snow |
|---|---|---|---|---|---|---|---|
| 1787936840 | 16.11° C | 90% | 1006.8 hPa | 0 mm | - | - | - |
| 1787936540 | 16.11° C | 90% | 1006.9 hPa | 0 mm | - | - | - |
| 1787936240 | 16.11° C | 90% | 1006.9 hPa | 0 mm | - | - | - |
| 1787935940 | 16.11° C | 90% | 1007 hPa | 0 mm | - | - | - |
| 1787935640 | 16.11° C | 90% | 1007 hPa | 0 mm | - | - | - |
| 1787935350 | 16.11° C | 90% | 1006.9 hPa | 0 mm | - | - | - |
| 1787935040 | 16.67° C | 89% | 1006.8 hPa | 0 mm | - | - | - |
| 1787934740 | 16.67° C | 88% | 1006.9 hPa | 0.25 mm | - | - | - |
| 1787934440 | 16.67° C | 87% | 1006.9 hPa | 0.25 mm | - | - | - |
| 1787934140 | 17.22° C | 86% | 1006.9 hPa | 0.51 mm | - | - | - |
| 1787933840 | 17.22° C | 85% | 1006.9 hPa | 0.76 mm | - | - | - |
| 1787933541 | 17.22° C | 85% | 1006.9 hPa | 0.76 mm | - | - | - |
| 1787933240 | 17.22° C | 84% | 1006.7 hPa | 0.76 mm | - | - | - |
| 1787932947 | 17.22° C | 84% | 1006.7 hPa | 0.76 mm | - | - | - |
| 1787932641 | 17.22° C | 84% | 1006.8 hPa | 1.02 mm | - | - | - |
| 1787932341 | 17.78° C | 83% | 1006.9 hPa | 1.02 mm | - | - | - |
| 1787932041 | 18.33° C | 81% | 1006.9 hPa | 1.02 mm | - | - | - |
| 1787931741 | 18.89° C | 79% | 1006.8 hPa | 2.03 mm | - | - | - |
| 1787931440 | 20° C | 76% | 1006.8 hPa | 2.29 mm | - | - | - |
| 1787931141 | 21.11° C | 81% | 1006.8 hPa | 2.03 mm | - | - | - |
| 1787930841 | 21.11° C | 79% | 1006.7 hPa | 2.03 mm | - | - | - |
| 1787930544 | 21.11° C | 79% | 1006.8 hPa | 1.78 mm | - | - | - |
| 1787930240 | 21.11° C | 79% | 1006.8 hPa | 1.52 mm | - | - | - |
| 1787929940 | 21.11° C | 80% | 1006.8 hPa | 1.52 mm | - | - | - |
| 1787929641 | 20.56° C | 81% | 1006.8 hPa | 1.52 mm | - | - | - |
* Rain latest hour (hover to see other rain measurements)
** Current wind speed in m/s (hover to see current wind gust speed)